Location: Gull Harbor
(47.1000°N, 122.9000°W)
Time: 12:17:22
(UTC-08:00)

ISS - Visible Passes

Search period start: 20 January 2021 00:00
Search period end: 30 January 2021 00:00
Orbit: 418 x 419 km, 51.6° (Epoch: 21 January)

Date Brightness Start Highest point End Pass type
(mag) Time Alt. Az. Time Alt. Az. Time Alt. Az.
20 Jan -3.4 18:59:51 10° SW 19:02:46 60° SSW 19:02:46 60° SSW visible
21 Jan -3.2 18:12:17 10° SW 18:15:31 45° SSE 18:17:08 24° E visible
21 Jan -0.9 19:49:03 10° W 19:50:06 18° W 19:50:06 18° W visible
22 Jan -3.5 19:01:11 10° WSW 19:04:24 60° NNW 19:04:24 60° NNW visible
23 Jan -3.8 18:13:21 10° WSW 18:16:43 83° NNW 18:18:39 24° ENE visible
23 Jan -0.9 19:50:37 10° WNW 19:51:36 17° WNW 19:51:36 17° WNW visible
24 Jan -2.9 19:02:42 10° W 19:05:49 40° NNW 19:05:49 40° NNW visible
25 Jan -3.2 18:14:46 10° W 18:18:03 48° NNW 18:20:00 21° NE visible
25 Jan -0.8 19:52:05 10° WNW 19:52:57 16° WNW 19:52:57 16° WNW visible
26 Jan -2.7 19:04:12 10° WNW 19:07:07 35° N 19:07:07 35° N visible
27 Jan -2.8 18:16:16 10° WNW 18:19:26 37° N 18:21:17 20° NE visible
27 Jan -0.9 19:53:21 10° WNW 19:54:13 16° WNW 19:54:13 16° WNW visible
28 Jan -2.9 19:05:31 10° WNW 19:08:23 39° N 19:08:23 39° N visible
29 Jan -2.9 18:17:38 10° WNW 18:20:48 37° N 18:22:35 21° ENE visible
29 Jan -1.0 19:54:29 10° WNW 19:55:32 19° WNW 19:55:32 19° WNW visible
